HB9EKJ-13 Weather Reports


Display with metric or nautical units.
time (UTC)temp
F
wind
direction
speed
MPH
gust
MPH
rain 1hr
in
rain 24hr
in
rain mn
in
humidity
%
barometer
mb
20260506201707 50 0.0 0.0 0.00 0.00 0.00 29 1013.9
20260506200708 50 0.0 0.0 0.00 0.00 0.00 28 1013.9
20260506200208 50 0.0 0.0 0.00 0.00 0.00 28 1013.9
20260506195206 51 0.0 0.0 0.00 0.00 0.00 28 1013.9
20260506194707 51 0.0 0.0 0.00 0.00 0.00 29 1013.9
20260506193708 51 0.0 0.0 0.00 0.00 0.00 28 1012.9
20260506192208 51 0.0 0.0 0.00 0.00 0.00 28 1013.9
20260506191707 51 0.0 0.0 0.00 0.00 0.00 28 1013.9
20260506190707 51 0.0 0.0 0.00 0.00 0.00 28 1013.9
20260506190208 51 0.0 0.0 0.00 0.00 0.00 28 1013.9
20260506185206 51 0.0 0.0 0.00 0.00 0.00 29 1013.9
20260506184707 51 0.0 0.0 0.00 0.00 0.00 29 1013.9
20260506183708 51 0.0 0.0 0.00 0.00 0.00 29 1013.9
20260506183208 51 0.0 0.0 0.00 0.00 0.00 29 1013.9
20260506182207 51 0.0 0.0 0.00 0.00 0.00 29 1012.9
20260506181707 51 0.0 0.0 0.00 0.00 0.00 29 1012.9
20260506180706 52 0.0 0.0 0.00 0.00 0.00 28 1012.9
20260506180209 52 0.0 0.0 0.00 0.00 0.00 28 1012.9
20260506175207 52 0.0 0.0 0.00 0.00 0.00 27 1012.9
20260506174707 53 0.0 0.0 0.00 0.00 0.00 27 1012.9
20260506173707 53 0.0 0.0 0.00 0.00 0.00 27 1011.8
20260506173207 53 0.0 0.0 0.00 0.00 0.00 27 1011.8
20260506172208 53 0.0 0.0 0.00 0.00 0.00 27 1011.8
20260506171707 54 0.0 0.0 0.00 0.00 0.00 28 1011.8
20260506170707 55 0.0 0.0 0.00 0.00 0.00 29 1011.8
20260506165208 55 0.0 0.0 0.00 0.00 0.00 32 1011.8
20260506163706 53 0.0 0.0 0.00 0.00 0.00 30 1011.8
20260506155207 54 0.0 0.0 0.00 0.00 0.00 32 1011.8
20260506154208 53 0.0 0.0 0.00 0.00 0.00 33 1011.8
20260506153706 53 0.0 0.0 0.00 0.00 0.00 35 1011.8
20260506151209 52 0.0 0.0 0.00 0.00 0.00 37 1012.9
20260506145208 51 0.0 0.0 0.00 0.00 0.00 37 1012.9
20260506142706 50 0.0 0.0 0.00 0.00 0.00 36 1011.8
20260506142207 50 0.0 0.0 0.00 0.00 0.00 36 1011.8
20260506141206 51 0.0 0.0 0.00 0.00 0.00 36 1011.8
20260506140707 51 0.0 0.0 0.00 0.00 0.00 34 1011.8
20260506135708 51 0.0 0.0 0.00 0.00 0.00 32 1011.8
20260506135208 51 0.0 0.0 0.00 0.00 0.00 31 1011.8
20260506134209 52 0.0 0.0 0.00 0.00 0.00 28 1010.8
20260506133706 53 0.0 0.0 0.00 0.00 0.00 27 1010.8
20260506132708 54 0.0 0.0 0.00 0.00 0.00 26 1010.8
20260506132209 54 0.0 0.0 0.00 0.00 0.00 26 1010.8
20260506130708 56 0.0 0.0 0.00 0.00 0.00 17 1010.8
20260506125708 58 0.0 0.0 0.00 0.00 0.00 17 1009.7
20260506123706 64 0.0 0.0 0.00 0.00 0.00 16 1009.7
20260506121208 67 0.0 0.0 0.00 0.00 0.00 15 1009.7
20260506114208 64 0.0 0.0 0.00 0.00 0.00 16 1008.7
20260506113208 64 0.0 0.0 0.00 0.00 0.00 16 1008.7
20260506112707 64 0.0 0.0 0.00 0.00 0.00 16 1008.7
20260506111707 64 0.0 0.0 0.00 0.00 0.00 16 1008.7
20260506111206 64 0.0 0.0 0.00 0.00 0.00 16 1009.7
20260506105708 64 0.0 0.0 0.00 0.00 0.00 16 1009.7
20260506104706 64 0.0 0.0 0.00 0.00 0.00 15 1009.7
20260506104206 65 0.0 0.0 0.00 0.00 0.00 15 1009.7
20260506103208 67 0.0 0.0 0.00 0.00 0.00 15 1009.7
20260506101708 65 0.0 0.0 0.00 0.00 0.00 15 1009.7
20260506101208 65 0.0 0.0 0.00 0.00 0.00 15 1009.7
20260506095706 65 0.0 0.0 0.00 0.00 0.00 15 1009.7
20260506094707 66 0.0 0.0 0.00 0.00 0.00 15 1009.7
20260506094206 66 0.0 0.0 0.00 0.00 0.00 15 1009.7
20260506093208 68 0.0 0.0 0.00 0.00 0.00 15 1009.7
20260506092707 67 0.0 0.0 0.00 0.00 0.00 15 1009.7
20260506091707 66 0.0 0.0 0.00 0.00 0.00 15 1009.7
20260506091208 66 0.0 0.0 0.00 0.00 0.00 15 1009.7
20260506085707 64 0.0 0.0 0.00 0.00 0.00 16 1009.7
20260506084708 64 0.0 0.0 0.00 0.00 0.00 16 1009.7
20260506084209 63 0.0 0.0 0.00 0.00 0.00 16 1009.7
20260506083207 64 0.0 0.0 0.00 0.00 0.00 16 1009.7
20260506082708 63 0.0 0.0 0.00 0.00 0.00 16 1009.7
20260506081707 60 0.0 0.0 0.00 0.00 0.00 17 1009.7
20260506080209 59 0.0 0.0 0.00 0.00 0.00 19 1009.7
20260506073207 56 0.0 0.0 0.00 0.00 0.00 25 1009.7
20260506071708 56 0.0 0.0 0.00 0.00 0.00 26 1010.8
20260506062207 53 0.0 0.0 0.00 0.00 0.00 29 1009.7
20260506061707 52 0.0 0.0 0.00 0.00 0.00 29 1009.7
20260506060708 52 0.0 0.0 0.00 0.00 0.00 30 1009.7
20260506050208 50 0.0 0.0 0.00 0.00 0.00 32 1009.7
20260506042206 49 0.0 0.0 0.00 0.00 0.00 32 1009.7
20260506040707 49 0.0 0.0 0.00 0.00 0.00 32 1009.7
20260506035207 49 0.0 0.0 0.00 0.00 0.00 32 1010.8
20260506033708 49 0.0 0.0 0.00 0.00 0.00 31 1010.8
20260506030708 50 0.0 0.0 0.00 0.00 0.00 31 1010.8
20260506025208 50 0.0 0.0 0.00 0.00 0.00 31 1010.8
20260506023707 50 0.0 0.0 0.00 0.00 0.00 31 1011.8
20260506022707 50 0.0 0.0 0.00 0.00 0.00 31 1011.8
20260506022209 50 0.0 0.0 0.00 0.00 0.00 30 1011.8
20260506021207 50 0.0 0.0 0.00 0.00 0.00 30 1011.8
20260506020707 50 0.0 0.0 0.00 0.00 0.00 30 1011.8
20260506015706 50 0.0 0.0 0.00 0.00 0.00 30 1011.8
20260506015206 50 0.0 0.0 0.00 0.00 0.00 30 1011.8
20260506014209 50 0.0 0.0 0.00 0.00 0.00 31 1012.9
20260506013707 50 0.0 0.0 0.00 0.00 0.00 31 1012.9
20260506012708 51 0.0 0.0 0.00 0.00 0.00 31 1011.8
20260506012206 51 0.0 0.0 0.00 0.00 0.00 31 1011.8
20260506011208 51 0.0 0.0 0.00 0.00 0.00 31 1011.8
20260506005708 50 0.0 0.0 0.00 0.00 0.00 30 1011.8
20260506005207 51 0.0 0.0 0.00 0.00 0.00 31 1011.8
20260506004207 51 0.0 0.0 0.00 0.00 0.00 31 1011.8
20260506003708 51 0.0 0.0 0.00 0.00 0.00 31 1011.8
20260506002706 51 0.0 0.0 0.00 0.00 0.00 31 1011.8
20260506002208 51 0.0 0.0 0.00 0.00 0.00 30 1011.8
20260506001207 50 0.0 0.0 0.00 0.00 0.00 30 1012.9
20260506000707 50 0.0 0.0 0.00 0.00 0.00 30 1012.9
20260505235706 50 0.0 0.0 0.00 0.00 0.00 30 1012.9
20260505234207 50 0.0 0.0 0.00 0.00 0.00 30 1012.9
20260505233706 50 0.0 0.0 0.00 0.00 0.00 30 1012.9
20260505232707 50 0.0 0.0 0.00 0.00 0.00 30 1012.9
20260505232205 51 0.0 0.0 0.00 0.00 0.00 30 1012.9
20260505231207 51 0.0 0.0 0.00 0.00 0.00 30 1012.9
20260505225707 50 0.0 0.0 0.00 0.00 0.00 30 1012.9
20260505222707 51 0.0 0.0 0.00 0.00 0.00 30 1012.9
20260505221207 51 0.0 0.0 0.00 0.00 0.00 30 1013.9
20260505220209 51 0.0 0.0 0.00 0.00 0.00 29 1013.9
20260505215707 51 0.0 0.0 0.00 0.00 0.00 29 1013.9
20260505214209 51 0.0 0.0 0.00 0.00 0.00 29 1013.9
20260505213208 51 0.0 0.0 0.00 0.00 0.00 29 1013.9
20260505212708 51 0.0 0.0 0.00 0.00 0.00 29 1013.9
20260505211708 50 0.0 0.0 0.00 0.00 0.00 28 1013.9
20260505211207 50 0.0 0.0 0.00 0.00 0.00 27 1013.9
20260505210208 51 0.0 0.0 0.00 0.00 0.00 28 1013.9
20260505205707 51 0.0 0.0 0.00 0.00 0.00 27 1013.9
20260505204209 51 0.0 0.0 0.00 0.00 0.00 27 1015.0
20260505203209 51 0.0 0.0 0.00 0.00 0.00 27 1015.0
20260505202708 51 0.0 0.0 0.00 0.00 0.00 27 1013.9